Location: Trois-Rivi�res
(46.3500°N, 72.5500°W)
Time: 04:13:20
(UTC-05:00)

OTV 5 (USA 277) - Visible Passes

Search period start: 13 December 2017 00:00
Search period end: 23 December 2017 00:00
Orbit: 404 x 417 km, 43.0° (Epoch: 07 September)

Date Brightness Start Highest point End Pass type
(mag) Time Alt. Az. Time Alt. Az. Time Alt. Az.
13 Dec ? 16:37:29 10° W 16:40:42 41° S 16:43:54 10° ESE visible
13 Dec ? 18:15:13 10° WSW 18:17:32 17° SSW 18:18:47 15° S visible
14 Dec ? 17:23:54 10° WSW 17:26:37 23° SSW 17:29:20 10° SSE visible
15 Dec ? 16:32:42 10° W 16:35:40 28° SSW 16:38:38 10° SE visible
16 Dec ? 17:19:52 10° WSW 17:21:26 13° SSW 17:22:59 10° S visible
